Abingdon, VA

11:39 PM EDT on September 18, 2019 (GMT -0400)
Virginia Highlands

Weather History for KVJI - June, 2019

Change the Weather History Date:

Thursday, June 13, 2019

  Actual Average (WUND) Record (WUND)
Temperature  
Mean Temperature 62 °F -  
Max Temperature 68 °F - - (-1)
Min Temperature 55 °F - - (-1)
Degree Days  
Heating Degree Days 4    
Growing Degree Days 12 (Base 50)    
Moisture  
Dew Point 50 °F    
Average Humidity 70    
Maximum Humidity 100    
Minimum Humidity 38    
Precipitation  
Precipitation 0.43 in - - ()
Sea Level Pressure  
Sea Level Pressure 29.95 in    
Wind  
Wind Speed 8 mph (WNW)    
Max Wind Speed 23 mph    
Max Gust Speed 32 mph    
Visibility 10 miles    
Events Rain    
Averages and records for this station are not official NWS values.
T = Trace of Precipitation, MM = Missing Value Source: NWS Daily Summary

Daily Weather History Graph

Daily Weather History Graph

Search for Another Location

Airport or City:

Astronomy

Jun. 13, 2019 Rise Set
Actual Time 6:08 AM EDT 8:47 PM EDT
Civil Twilight 5:38 AM EDT 9:18 PM EDT
Nautical Twilight 5:00 AM EDT 9:56 PM EDT
Astronomical Twilight 4:17 AM EDT 10:38 PM EDT
Moon 5:07 PM EDT (6/13) 3:46 AM EDT (6/13)
Length of Visible Light 15h 40m
Length of Day
14h 38m
Waxing Gibbous, 85% of the Moon is Illuminated
Jun 13
Waxing Gibbous
Jun 17
Full
Jun 25
Last Quarter
Jul 2
New
Jul 9
First Quarter

Hourly Weather History & Observations

Time (EDT) Temp. Dew Point Humidity Pressure Visibility Wind Dir Wind Speed Gust Speed Precip Events Conditions
12:35 AM 58.1 °F 51.8 °F 80% 29.93 in 10.0 mi East 9.2 mph - N/A   Clear
12:55 AM 57.6 °F 52.0 °F 82% 29.93 in 10.0 mi ENE 6.9 mph - N/A   Clear
1:15 AM 57.2 °F 51.8 °F 82% 29.91 in 10.0 mi East 8.1 mph - N/A   Scattered Clouds
1:35 AM 57.2 °F 52.0 °F 83% 29.91 in 10.0 mi East 5.8 mph - N/A   Mostly Cloudy
1:55 AM 57.4 °F 52.0 °F 82% 29.91 in 10.0 mi Calm Calm - N/A   Overcast
2:15 AM 57.2 °F 52.0 °F 83% 29.90 in 10.0 mi NE 5.8 mph - N/A   Overcast
2:35 AM 57.2 °F 52.2 °F 83% 29.89 in 10.0 mi East 5.8 mph - N/A   Overcast
2:55 AM 57.2 °F 52.2 °F 83% 29.89 in 10.0 mi Calm Calm - N/A   Overcast
3:15 AM 57.2 °F 52.9 °F 85% 29.88 in 10.0 mi Calm Calm - N/A   Overcast
3:35 AM 56.7 °F 53.2 °F 88% 29.86 in 10.0 mi ENE 4.6 mph - N/A   Overcast
3:55 AM 56.7 °F 53.6 °F 89% 29.86 in 10.0 mi East 3.5 mph - N/A   Overcast
4:15 AM 56.7 °F 54.1 °F 91% 29.89 in 4.0 mi North 5.8 mph 19.6 mph 0.11 in Rain Heavy Rain
4:35 AM 55.8 °F 54.5 °F 96% 29.90 in 4.0 mi Calm Calm - 0.22 in Rain Rain
4:55 AM 55.6 °F 55.2 °F 99% 29.90 in 4.0 mi Calm Calm - 0.28 in Rain Rain
5:15 AM 55.8 °F 55.8 °F 100% 29.89 in 7.0 mi ESE 3.5 mph - 0.04 in Rain Light Rain
5:35 AM 55.9 °F 55.9 °F 100% 29.90 in 10.0 mi Calm Calm - 0.04 in Rain Light Rain
5:55 AM 56.3 °F 56.3 °F 100% 29.91 in 10.0 mi SW 4.6 mph - 0.05 in Rain Rain
6:15 AM 55.9 °F 55.9 °F 100% 29.92 in 4.0 mi Calm Calm - 0.06 in Rain Rain
6:35 AM 55.8 °F 55.8 °F 100% 29.91 in 10.0 mi Calm Calm - 0.08 in Rain Light Rain
6:55 AM 55.9 °F 55.9 °F 100% 29.91 in 10.0 mi Calm Calm - 0.08 in Rain Light Rain
7:15 AM 56.3 °F 56.3 °F 100% 29.91 in 10.0 mi Calm Calm - 0.01 in Rain Rain
7:35 AM 56.3 °F 56.3 °F 100% 29.91 in 10.0 mi Calm Calm - 0.01 in   Overcast
7:55 AM 56.7 °F 56.7 °F 100% 29.92 in 10.0 mi Calm Calm - 0.01 in   Overcast
8:15 AM 57.2 °F 57.2 °F 100% 29.92 in 10.0 mi West 3.5 mph - N/A   Overcast
8:35 AM 57.7 °F 57.7 °F 100% 29.92 in 10.0 mi West 5.8 mph - N/A   Overcast
8:55 AM 58.6 °F 58.6 °F 100% 29.92 in 10.0 mi WSW 5.8 mph - N/A   Overcast
9:15 AM 59.2 °F 59.0 °F 99% 29.92 in 10.0 mi West 5.8 mph - N/A   Overcast
9:35 AM 59.7 °F 58.8 °F 97% 29.91 in 10.0 mi West 6.9 mph - N/A   Overcast
9:55 AM 61.0 °F 58.6 °F 92% 29.91 in 10.0 mi West 9.2 mph 16.1 mph N/A   Overcast
10:15 AM 61.0 °F 58.3 °F 91% 29.91 in 10.0 mi WSW 9.2 mph - N/A   Overcast
10:35 AM 60.3 °F 58.5 °F 94% 29.91 in 10.0 mi West 8.1 mph - N/A   Light Drizzle
10:55 AM 60.3 °F 58.5 °F 94% 29.91 in 10.0 mi West 9.2 mph - 0.01 in   Mostly Cloudy
11:15 AM 61.7 °F 58.1 °F 88% 29.91 in 10.0 mi West 8.1 mph - N/A   Mostly Cloudy
11:55 AM 64.9 °F 55.9 °F 73% 29.92 in 10.0 mi West 20.7 mph 25.3 mph N/A   Mostly Cloudy
12:15 PM 65.7 °F 54.7 °F 68% 29.92 in 10.0 mi WNW 12.7 mph 20.7 mph N/A   Mostly Cloudy
12:35 PM 65.5 °F 53.6 °F 65% 29.93 in 10.0 mi NNW 15.0 mph 25.3 mph N/A   Overcast
12:55 PM 66.6 °F 53.2 °F 62% 29.93 in 10.0 mi WNW 15.0 mph 28.8 mph N/A   Mostly Cloudy
1:15 PM 65.8 °F 50.0 °F 57% 29.94 in 10.0 mi WNW 15.0 mph 28.8 mph N/A   Mostly Cloudy
1:35 PM 66.7 °F 51.4 °F 58% 29.94 in 10.0 mi WNW 17.3 mph 27.6 mph N/A   Scattered Clouds
1:55 PM 67.3 °F 49.6 °F 53% 29.94 in 10.0 mi WNW 20.7 mph 32.2 mph N/A   Scattered Clouds
2:15 PM 67.8 °F 51.3 °F 55% 29.94 in 10.0 mi WNW 18.4 mph 25.3 mph N/A   Scattered Clouds
2:35 PM 67.8 °F 49.5 °F 52% 29.94 in 10.0 mi West 12.7 mph 27.6 mph N/A   Scattered Clouds
2:55 PM 68.9 °F 47.5 °F 46% 29.95 in 10.0 mi WNW 19.6 mph 28.8 mph N/A   Clear
3:15 PM 68.0 °F 44.4 °F 43% 29.95 in 10.0 mi WNW 23.0 mph 29.9 mph N/A   Scattered Clouds
3:35 PM 68.7 °F 45.9 °F 44% 29.95 in 10.0 mi WNW 16.1 mph 27.6 mph N/A   Mostly Cloudy
3:55 PM 68.7 °F 45.3 °F 43% 29.96 in 10.0 mi WNW 12.7 mph 27.6 mph N/A   Scattered Clouds
4:15 PM 68.5 °F 44.6 °F 42% 29.96 in 10.0 mi WNW 18.4 mph 29.9 mph N/A   Scattered Clouds
4:35 PM 67.1 °F 43.2 °F 42% 29.96 in 10.0 mi WNW 20.7 mph 28.8 mph N/A   Mostly Cloudy
4:55 PM 68.0 °F 41.7 °F 38% 29.97 in 10.0 mi WNW 23.0 mph 31.1 mph N/A   Mostly Cloudy
5:15 PM 68.2 °F 41.9 °F 38% 29.97 in 10.0 mi WNW 19.6 mph 29.9 mph N/A   Mostly Cloudy
5:35 PM 67.1 °F 42.4 °F 41% 29.97 in 10.0 mi WNW 20.7 mph 29.9 mph N/A   Scattered Clouds
5:55 PM 67.8 °F 43.2 °F 41% 29.98 in 10.0 mi WNW 12.7 mph 21.9 mph N/A   Scattered Clouds
6:15 PM 67.3 °F 43.2 °F 42% 29.98 in 10.0 mi WNW 16.1 mph 25.3 mph N/A   Scattered Clouds
6:35 PM 67.1 °F 42.4 °F 41% 29.98 in 10.0 mi WNW 19.6 mph 25.3 mph N/A   Scattered Clouds
6:55 PM 66.2 °F 41.2 °F 40% 29.99 in 10.0 mi WNW 18.4 mph 25.3 mph N/A   Clear
7:15 PM 65.8 °F 41.9 °F 42% 30.00 in 10.0 mi WNW 15.0 mph 21.9 mph N/A   Clear
7:35 PM 65.5 °F 41.4 °F 41% 30.01 in 10.0 mi WNW 12.7 mph 20.7 mph N/A   Mostly Cloudy
7:55 PM 64.0 °F 41.7 °F 44% 30.02 in 10.0 mi NW 8.1 mph 20.7 mph N/A   Mostly Cloudy
8:15 PM 63.0 °F 41.7 °F 46% 30.02 in 10.0 mi WNW 10.4 mph 23.0 mph N/A   Scattered Clouds
8:35 PM 62.8 °F 41.2 °F 45% 30.03 in 10.0 mi WNW 11.5 mph 24.2 mph N/A   Scattered Clouds
8:55 PM 61.2 °F 42.1 °F 50% 30.04 in 10.0 mi WNW 6.9 mph - N/A   Clear
9:15 PM 60.6 °F 42.6 °F 52% 30.05 in 10.0 mi WNW 8.1 mph - N/A   Scattered Clouds
9:35 PM 60.6 °F 42.8 °F 52% 30.06 in 10.0 mi NW 6.9 mph - N/A   Mostly Cloudy
9:55 PM 59.7 °F 43.2 °F 54% 30.07 in 10.0 mi NW 4.6 mph - N/A   Scattered Clouds
10:15 PM 58.6 °F 43.3 °F 57% 30.08 in 10.0 mi NW 4.6 mph - N/A   Clear
10:35 PM 58.1 °F 43.0 °F 57% 30.09 in 10.0 mi NW 4.6 mph - N/A   Clear
10:55 PM 57.9 °F 42.6 °F 57% 30.10 in 10.0 mi NW 5.8 mph - N/A   Scattered Clouds
11:15 PM 57.6 °F 41.9 °F 56% 30.11 in 10.0 mi NW 3.5 mph - N/A   Clear
11:35 PM 56.8 °F 41.5 °F 57% 30.11 in 10.0 mi WNW 4.6 mph - N/A   Clear
11:55 PM 56.5 °F 41.5 °F 57% 30.11 in 10.0 mi WNW 4.6 mph - N/A   Clear